Weather Roundup
Issued by NWS Chicago, IL

Home | Current Version | Previous Version | Text Only | Print | Product List | Glossary Off
Versions: 1 2 3 4 5 6 7 8 9 10 11 12 13 14 15 16 17 18 19 20 21 22 23 24 25 26 27 28 29 30 31 32 33 34 35 36 37 38 39 40 41 42 43 44 45 46 47 48 49 50

000
NZUS59 KLOT 140503
HRRLOT

CHICAGO AREA WEATHER ROUNDUP
NATIONAL WEATHER SERVICE CHICAGO/ROMEOVILLE IL
1100 PM CST SAT FEB 13 2016

NOTE: "FAIR" INDICATES FEW OR NO CLOUDS BELOW 12,000 FEET WITH NO
SIGNIFICANT WEATHER AND/OR OBSTRUCTIONS TO VISIBILITY.

* THESE STATIONS ARE NOT UNDER NWS QUALITY CONTROL. THEY ALSO MAY NOT
  REPORT WEATHER SUCH AS PRECIPITATION OR FOG.

ILZ005-006-012>014-019>023-140600-
NORTHEAST ILLINOIS

CITY           SKY/WX    TMP DP  RH WIND       PRES   REMARKS
OHARE          CLOUDY    12  -4  48 N3        30.47S
MIDWAY         CLOUDY    15  -2  46 S5        30.48S WCI   8
AURORA         CLOUDY    11   4  73 NE3       30.46F
WAUKEGAN       CLOUDY     4  -1  80 CALM      30.46F
DUPAGE AIRPORT CLOUDY     6  -2  69 NE3       30.45F
WHEELING       CLOUDY    10  -1  61 CALM      30.49S
$$

WIZ051-052-058>065-066-070>072-140600-
SOUTHEAST WISCONSIN

CITY           SKY/WX    TMP DP  RH WIND       PRES   REMARKS
MILWAUKEE      MOCLDY     7  -5  57 NW3       30.47S
KENOSHA*       CLOUDY     7  -3  64 N3        30.47S
RACINE*        PTCLDY     6  -6  57 W5        30.49S WCI  -3
BURLINGTON     CLOUDY     0  -4  82 CALM      30.46F
$$

INZ001>003-010>013-019-020-140600-
NORTHWEST INDIANA

CITY           SKY/WX    TMP DP  RH WIND       PRES   REMARKS
GARY*          CLOUDY    13  -1  53 S5        30.49S WCI   5
MICHIGAN CITY* NOT AVBL
RENSSELAER*    NOT AVBL
VALPARAISO     CLOUDY     8   0  69 CALM      30.48S
$$

LMZ740>746-140600-
SOUTHERN LAKE MICHIGAN

STATION/POSITION TIME  SKY/WX   TEMP WIND        PRES    VSBY
                                AIR  DIR/SP/G
                 (UTC)          (F)  (DEG/KT/KT) (MB)    (MI)
HARRISON CRIB    0400            17  310/  3/  4   N/A
BURNHAM HARBOR   0500            15  190/  5/  7   N/A
CALUMET HARBOR   0400            13  170/  5/  7 1031.5F
BURNS HARBOR     0400            11  180/  6/  8 1032.8S
MICHIGAN CITY    0400             9  130/  7/  8   N/A
$$

ABBREVIATIONS USED IN REMARKS
   TC - TEMPERATURE IN CELSIUS
  WCI - WIND CHILL INDEX
   HX - HEAT INDEX
  VSB - VISIBILITY
$$



USA.gov is the U.S. government's official web portal to all federal, state and local government web resources and services.